Location: Franzen
(48.6167°N, 15.3833°E)
Time: 11:44:08
(UTC+00:00)

SR - All Passes

Search period start: 04 August 2021 00:00
Search period end: 14 August 2021 00:00
Orbit: 577 x 877 km, 66.7° (Epoch: 03 August)

Date Brightness Start Highest point End Pass type
(mag) Time Alt. Az. Time Alt. Az. Time Alt. Az.
04 Aug - 03:03:06 10° SSE 03:06:51 18° ESE 03:10:29 10° ENE visible
04 Aug - 04:42:32 10° SW 04:48:20 89° WNW 04:53:47 10° NE daylight
04 Aug - 06:26:34 10° W 06:31:06 24° NW 06:35:23 10° NNE daylight
04 Aug - 08:13:38 10° NNW 08:15:05 11° N 08:16:31 10° N daylight
04 Aug - 09:57:36 10° N 09:59:34 12° NNE 10:01:29 10° NE daylight
04 Aug - 11:38:53 10° NNW 11:43:18 31° NE 11:47:24 10° ESE daylight
04 Aug - 13:20:57 10° NW 13:25:32 45° WSW 13:29:46 10° S daylight
05 Aug - 03:52:57 10° SSW 03:58:34 53° ESE 04:03:52 10° NE daylight
05 Aug - 05:35:40 10° WSW 05:40:52 36° NW 05:45:47 10° NNE daylight
05 Aug - 07:21:52 10° NW 07:24:29 13° NNW 07:27:01 10° N daylight
05 Aug - 09:08:11 10° N 09:08:56 10° N 09:09:41 10° NNE daylight
05 Aug - 10:49:17 10° NNW 10:53:02 21° NNE 10:56:34 10° E daylight
05 Aug - 12:30:57 10° NW 12:35:50 89° SW 12:40:17 10° SSE daylight
05 Aug - 14:15:07 10° W 14:16:58 12° WSW 14:18:47 10° SW daylight
06 Aug - 03:03:59 10° S 03:08:56 30° ESE 03:13:40 10° NE visible
06 Aug - 04:45:10 10° SW 04:50:49 57° NW 04:56:07 10° NNE daylight
06 Aug - 06:30:17 10° WNW 06:33:58 18° NNW 06:37:30 10° NNE daylight
06 Aug - 09:59:45 10° NNW 10:02:37 15° NNE 10:05:22 10° ENE daylight
06 Aug - 11:41:10 10° NNW 11:45:55 50° NE 11:50:18 10° SE daylight
06 Aug - 13:23:49 10° WNW 13:27:38 25° WSW 13:31:13 10° SSW daylight
07 Aug - 02:15:58 10° SE 02:19:28 17° ESE 02:22:53 10° ENE visible
07 Aug - 03:55:08 10° SSW 04:00:55 87° SE 04:06:21 10° NE daylight
07 Aug - 05:39:02 10° W 05:43:37 25° NW 05:47:57 10° NNE daylight
07 Aug - 07:26:05 10° NNW 07:27:34 11° NNW 07:29:02 10° N daylight
07 Aug - 09:10:16 10° N 09:12:03 12° NNE 09:13:47 10° NE daylight
07 Aug - 10:51:30 10° NNW 10:55:49 30° NE 10:59:50 10° ESE daylight
07 Aug - 12:33:30 10° NW 12:38:06 49° WSW 12:42:21 10° SSE daylight
08 Aug - 03:05:36 10° S 03:11:10 50° ESE 03:16:24 10° NE visible
08 Aug - 04:48:10 10° WSW 04:53:25 37° NW 04:58:21 10° NNE daylight
08 Aug - 06:34:17 10° NW 06:36:58 14° NNW 06:39:34 10° N daylight
08 Aug - 08:21:05 10° N 08:21:24 10° N 08:21:44 10° N daylight
08 Aug - 10:01:54 10° NNW 10:05:32 20° NNE 10:08:58 10° E daylight
08 Aug - 11:43:32 10° NW 11:48:23 86° ENE 11:52:49 10° SE daylight
08 Aug - 13:27:25 10° WNW 13:29:34 13° WSW 13:31:39 10° SW daylight
09 Aug - 02:16:43 10° SSE 02:21:33 28° ESE 02:26:09 10° NE visible
09 Aug - 03:57:43 10° SW 04:03:23 60° NW 04:08:40 10° NNE daylight
09 Aug - 05:42:44 10° WNW 05:46:28 18° NNW 05:50:03 10° NNE daylight
09 Aug - 09:12:23 10° N 09:15:06 14° NNE 09:17:41 10° NE daylight
09 Aug - 10:53:45 10° NNW 10:58:27 47° NE 11:02:46 10° ESE daylight
09 Aug - 12:36:19 10° NW 12:40:13 26° WSW 12:43:53 10° SSW daylight
10 Aug - 01:28:50 10° SE 01:32:05 16° ESE 01:35:15 10° ENE visible
10 Aug - 03:07:44 10° SSW 03:13:30 82° ESE 03:18:53 10° NE visible
10 Aug - 04:51:31 10° W 04:56:08 26° NW 05:00:30 10° NNE daylight
10 Aug - 06:38:31 10° NNW 06:40:03 11° NNW 06:41:32 10° N daylight
10 Aug - 08:22:57 10° N 08:24:31 11° NNE 08:26:04 10° NNE daylight
10 Aug - 10:04:06 10° NNW 10:08:20 28° NE 10:12:16 10° E daylight
10 Aug - 11:46:02 10° NW 11:50:40 52° WSW 11:54:56 10° SSE daylight
11 Aug - 02:18:16 10° S 02:23:45 47° ESE 02:28:55 10° NE visible
11 Aug - 04:00:41 10° WSW 04:05:57 39° NW 04:10:54 10° NNE daylight
11 Aug - 05:46:42 10° NW 05:49:27 14° NNW 05:52:06 10° N daylight
11 Aug - 09:14:31 10° NNW 09:18:02 19° NNE 09:21:21 10° ENE daylight
11 Aug - 10:56:06 10° NW 11:00:55 80° NE 11:05:20 10° SE daylight
11 Aug - 12:39:47 10° WNW 12:42:10 14° WSW 12:44:29 10° SW daylight
12 Aug - 01:29:27 10° SSE 01:34:09 27° ESE 01:38:38 10° NE visible
12 Aug - 03:10:16 10° SW 03:15:56 63° NW 03:21:14 10° NNE visible
12 Aug - 04:55:11 10° WNW 04:58:58 19° NNW 05:02:37 10° NNE daylight
12 Aug - 08:25:02 10° N 08:27:35 14° NNE 08:30:02 10° NE daylight
12 Aug - 10:06:21 10° NNW 10:10:59 44° NE 10:15:15 10° ESE daylight
12 Aug - 11:48:49 10° NW 11:52:48 28° WSW 11:56:32 10° S daylight
13 Aug - 00:41:45 10° SE 00:44:42 14° ESE 00:47:35 10° ENE visible
13 Aug - 02:20:20 10° SSW 02:26:03 78° ESE 02:31:25 10° NE visible
13 Aug - 04:03:59 10° W 04:08:39 27° NW 04:13:04 10° NNE daylight
13 Aug - 05:50:57 10° NNW 05:52:31 11° NNW 05:54:04 10° N daylight
13 Aug - 07:35:39 10° N 07:36:59 11° NNE 07:38:19 10° NNE daylight
13 Aug - 09:16:42 10° NNW 09:20:50 27° NE 09:24:41 10° E daylight
13 Aug - 10:58:36 10° NW 11:03:13 56° WSW 11:07:30 10° SSE daylight
